Probability
0 0 0 0 0 0 0 0 0 0 0 0 0 0 0 0 0 0 0 0 0 0 0 0 0 0 0 0 0 0 0 0 0 0 0 0 0 0 0 0 0 0 0
0 0 0 0 0 0 0 0 0 0 0 0 0 0 0 0 0 0 0 0 0 0 0 0 0 0 0 0 0 0 0 0 0 0 0 0 0 0 0 0 0 0 0
0 0 0 0 0 0 0 0 0 0 0 0 0 0 0 0 0 0 0 0 1 0 0 0 0 0 0 0 0 0 0 0 0 0 0 0 0 0 0 0 0 0 0
0 0 0 0 0 0 0 0 0 0 0 0 0 0 0 0 0 0 0 0 0 0 0 0 0 0 0 0 0 0 0 0 0 0 0 0 0 0 0 0 0 0 0
0 0 0 0 0 0 0 0 0 0 0 0 0 0 0 0 0 0 0 0 0 0 0 0 0 0 0 0 0 0 0 0 0 0 0 0 0 0 0 0 0 0 0
0 0 0 0 0 0 0 0 0 0 0 0 0 0 0 0 0 0 0 0 0 0 0 0 0 0 0 0 0 0 0 0 0 0 0 0 0 0 0 0 0 0 0
1 0 0 0 1 1 1 1 0 0 0 0 0 0 0 0 0 0 0 0 0 0 0 0 0 0 0 0 0 0 0 0 0 0 0 0 0 0 0 0 0 0 0
1 0 0 0 1 2 2 2 1 0 0 0 0 0 0 0 0 0 0 0 0 0 0 0 0 0 0 0 0 0 0 0 0 0 0 0 0 0 0 0 0 0 0
1 0 0 0 2 3 3 2 1 0 0 0 0 0 0 0 0 0 0 0 0 0 0 0 0 0 0 0 0 0 0 0 0 0 0 0 0 0 0 0 0 0 0
1 0 0 0 1 2 3 2 1 0 0 0 0 0 0 0 0 0 0 0 0 0 0 0 0 0 0 0 0 0 0 0 0 0 0 0 0 0 0 0 0 0 0
2 1 0 0 1 1 2 2 1 1 1 0 0 0 0 0 0 0 0 0 0 0 0 0 0 0 0 0 0 0 0 0 0 0 0 0 0 0 0 0 0 0 0
2 1 0 0 0 1 3 2 1 1 1 2 1 1 1 1 0 0 0 0 0 0 0 0 0 0 0 0 0 0 0 0 0 0 0 0 0 0 0 0 0 0 0
1 0 0 0 0 1 2 2 1 1 2 2 2 1 2 2 1 1 0 0 0 0 0 0 0 0 0 0 0 0 0 0 0 0 0 0 0 0 0 0 0 0 0
0 0 0 0 0 1 1 1 2 1 1 2 1 1 2 2 1 0 0 0 0 1 1 0 0 0 0 0 0 0 0 0 0 0 0 0 0 0 0 0 0 0 0
0 0 0 0 0 0 0 1 1 1 0 0 1 1 1 1 1 0 0 0 0 1 2 1 0 0 0 0 0 0 0 0 0 0 0 0 0 0 0 0 0 0 0
0 0 0 0 0 0 0 0 0 0 0 0 1 1 0 0 0 0 0 0 0 1 2 1 0 0 0 0 0 0 0 0 0 0 0 0 0 0 0 0 0 0 0
0 0 0 0 0 0 0 0 0 0 0 0 1 0 0 0 1 1 1 0 0 1 1 1 0 0 0 0 0 0 0 0 0 0 0 0 0 0 0 0 0 0 0
0 0 0 0 0 0 0 0 0 0 0 0 0 0 0 1 1 2 2 1 1 1 0 0 0 0 0 0 0 0 0 0 0 0 0 0 0 0 0 0 0 0 0
0 0 0 0 0 0 0 0 0 0 0 0 0 0 0 1 2 2 3 4 3 1 0 0 0 0 0 0 0 0 0 0 0 0 0 0 0 0 0 0 0 0 0
0 0 0 0 0 0 0 0 0 0 0 0 0 0 0 1 1 1 2 4 4 1 0 0 0 0 0 0 0 0 0 0 0 0 0 0 0 0 0 0 0 0 0
0 0 0 0 0 0 0 0 0 0 0 0 0 0 0 0 1 1 1 2 3 2 0 0 0 0 0 0 0 0 0 0 0 0 0 0 0 0 0 0 0 0 0
0 0 0 0 0 0 0 0 0 0 0 0 0 0 0 1 1 2 1 1 2 2 1 0 0 0 0 0 0 0 0 0 0 0 0 0 0 0 0 0 0 0 0
0 0 0 0 0 0 0 0 0 0 0 0 0 0 0 1 1 3 2 1 2 3 3 1 0 0 0 0 0 0 0 0 0 0 0 0 0 0 0 0 0 0 0
0 0 0 0 0 0 0 0 0 0 0 0 0 0 0 1 2 3 3 2 2 3 4 2 0 0 0 0 0 0 0 0 0 0 0 0 0 0 0 0 0 0 0
0 0 0 0 0 0 0 0 0 0 0 0 0 0 0 1 2 3 3 2 1 1 2 1 0 0 0 0 0 0 0 0 0 0 0 0 0 0 0 0 0 0 0
0 0 0 0 0 0 0 0 0 0 0 0 0 0 0 1 2 3 3 2 1 0 0 1 0 0 0 0 0 0 0 0 0 0 0 0 0 0 0 0 0 0 0
Wind_Speed
4 4 9 10 10 10 10 10 9 9 9 8 8 8 8 8 8 8 7 7 7 7 7 7 7 7 7 7 7 7 7 8 7 7 7 7 7 8 7 8 8 5 9
7 6 10 10 10 10 10 10 9 9 8 8 7 7 7 7 7 7 7 7 7 6 6 6 6 6 6 6 6 6 7 7 6 5 6 6 7 8 8 8 7 5 8
10 7 8 10 10 10 10 9 9 8 8 7 7 7 6 6 6 5 5 6 6 6 5 5 5 5 5 5 5 5 6 6 6 5 5 3 3 7 7 7 7 7 8
10 7 8 11 11 10 9 9 8 8 7 7 6 6 6 6 5 5 5 5 5 5 5 5 5 5 4 4 4 4 5 6 6 5 3 2 2 6 7 7 6 6 7
9 7 8 11 11 10 9 9 8 8 7 7 6 6 6 5 5 4 4 5 5 5 5 4 4 4 3 3 2 3 4 6 6 5 3 3 3 5 6 6 6 6 6
8 7 8 11 10 10 9 9 8 8 7 7 6 6 5 5 5 5 5 5 5 4 4 4 4 3 2 2 1 2 4 5 5 3 3 3 2 5 6 6 5 5 6
7 6 7 11 10 9 9 8 8 8 8 7 7 6 6 6 6 5 5 5 5 5 5 5 4 3 2 1 0 1 3 4 3 3 2 2 3 6 6 6 5 6 6
6 5 5 9 10 9 9 9 9 8 8 8 8 7 7 7 6 6 6 6 6 5 5 5 4 4 3 3 2 2 2 3 3 3 3 2 5 6 6 6 6 6 7
5 3 1 1 3 6 8 9 9 9 10 9 9 8 8 8 7 7 7 7 7 7 7 6 5 5 5 4 4 4 2 2 2 2 4 3 6 7 7 6 6 6 7
5 4 3 2 1 1 3 7 9 9 10 10 10 10 10 9 9 9 9 9 9 9 9 8 7 7 6 6 6 5 3 1 1 2 2 4 8 8 7 7 6 6 7
6 4 3 3 3 2 3 5 6 8 9 9 9 11 10 5 5 6 9 11 11 11 10 10 9 9 8 7 8 7 3 1 1 2 3 7 9 9 8 7 7 7 7
5 5 4 4 4 4 3 2 2 3 3 4 4 5 4 4 5 7 9 14 14 13 12 11 11 9 7 3 5 6 1 2 2 2 3 9 10 9 8 8 7 7 7
3 4 4 3 4 4 3 2 1 1 2 3 4 5 4 4 4 5 4 7 9 10 6 7 7 4 4 3 3 3 3 2 2 3 4 10 10 10 9 9 8 8 7
4 4 4 3 3 3 3 2 2 1 2 3 4 5 4 3 4 4 4 4 4 4 4 4 3 5 5 5 5 4 4 3 3 3 4 10 11 10 10 9 9 8 8
6 6 5 4 4 3 3 2 2 2 3 3 3 3 4 4 4 4 4 4 5 4 5 5 5 5 6 6 6 6 5 5 5 5 4 10 10 10 11 10 9 9 9
6 7 6 5 5 4 3 3 3 3 3 3 3 4 4 4 4 4 4 4 5 5 5 6 6 6 6 5 6 7 6 6 6 6 5 7 10 10 10 11 10 10 10
5 6 7 6 5 5 5 4 4 3 3 3 3 4 4 4 4 4 3 4 4 5 5 4 5 5 5 5 5 6 5 7 7 7 6 4 5 8 10 11 11 11 11
5 6 7 7 7 6 5 5 4 4 4 3 3 3 4 4 4 3 3 4 4 4 4 4 4 4 4 3 3 3 4 5 7 7 6 5 4 5 7 10 11 11 11
5 6 7 7 7 6 6 5 4 4 4 3 3 3 4 4 4 3 3 3 4 3 4 5 4 3 3 2 3 3 3 4 6 7 7 7 6 5 4 8 10 10 11
6 6 7 7 7 7 5 4 3 4 4 3 3 3 4 4 4 4 3 4 3 3 3 3 3 3 2 2 2 2 2 3 4 5 6 6 5 6 6 5 5 7 10
6 7 7 7 7 6 4 4 4 4 4 4 3 4 4 4 4 3 3 3 3 4 4 4 3 4 3 2 2 0 1 0 2 3 4 4 5 6 6 5 4 4 4
5 6 6 7 8 7 5 4 3 4 3 3 3 4 4 4 4 3 3 3 4 3 4 5 4 3 2 3 3 2 0 1 1 1 2 4 5 5 6 7 5 5 4
5 6 6 7 7 7 7 4 4 3 3 3 4 3 3 3 3 3 3 3 3 3 4 5 5 5 4 3 3 4 4 4 2 1 2 2 4 4 4 5 6 6 6
5 5 5 6 7 7 7 5 5 4 4 4 4 4 4 3 3 2 2 3 3 3 4 5 5 4 5 4 3 2 2 3 3 1 1 1 3 4 4 4 5 5 6
5 5 5 6 6 7 6 6 5 4 4 4 4 4 4 4 3 2 2 2 2 3 4 5 5 5 4 4 4 3 2 1 2 3 2 1 1 1 3 3 3 3 5
5 5 5 6 6 7 7 6 5 6 6 6 5 4 4 3 3 3 2 2 1 2 3 4 5 6 5 5 4 4 4 3 3 3 3 2 2 1 2 2 3 3 3
Wind_Direction
159 170 146 138 134 132 132 131 130 129 129 126 121 117 112 109 106 103 102 102 100 96 91 86 84 79 73 70 67 64 62 59 56 60 67 72 73 72 77 89 98 99 104
154 159 144 138 135 134 133 133 133 132 131 129 126 122 118 115 112 107 104 106 106 103 98 93 90 84 78 72 66 61 57 52 48 57 76 76 78 79 82 93 101 105 106
144 148 143 140 137 136 135 135 134 135 134 132 130 127 123 120 118 116 113 110 109 112 111 105 100 93 85 75 63 55 47 39 37 58 95 90 83 88 90 93 100 108 115
144 149 148 146 142 141 141 140 139 139 139 141 140 137 132 129 126 124 127 125 122 120 120 116 112 105 95 78 58 42 33 26 32 77 93 97 83 93 95 93 98 105 116
146 149 153 151 149 149 149 148 147 147 147 148 150 147 146 145 143 142 140 139 136 134 130 127 124 120 107 88 55 28 22 21 47 92 102 92 79 94 94 94 98 106 115
144 149 159 155 156 156 157 158 158 159 161 161 161 161 162 164 166 162 158 151 147 149 150 144 141 138 128 112 51 9 10 19 61 99 121 110 97 99 97 97 102 111 121
144 153 165 163 166 168 169 171 172 174 176 178 178 179 180 182 183 181 176 172 167 164 163 161 166 170 169 175 260 330 356 13 89 121 137 118 114 109 102 100 104 110 121
136 147 164 174 176 181 184 186 189 191 193 194 194 195 195 197 198 194 191 188 185 183 180 179 190 197 202 220 248 282 334 5 85 133 154 150 136 118 109 105 104 110 119
81 88 95 176 193 198 199 201 202 203 206 206 206 208 208 209 209 206 203 201 201 201 199 198 205 211 217 230 247 266 297 14 103 158 165 161 144 130 121 115 110 112 122
56 49 32 10 344 289 241 225 219 216 217 217 216 215 215 215 215 217 216 215 213 211 209 211 214 219 225 236 248 260 280 26 126 180 162 166 153 140 132 125 120 118 125
41 32 23 357 327 303 267 243 237 230 228 227 225 224 220 217 218 224 226 223 223 220 216 217 220 225 231 242 251 259 271 142 167 179 173 172 160 151 143 135 129 126 129
21 18 19 1 341 318 293 275 259 245 245 236 228 227 221 213 218 225 228 229 227 224 221 221 225 230 235 243 260 265 224 179 184 184 194 180 168 160 152 147 142 137 135
9 7 5 353 344 344 327 310 285 283 274 255 242 232 227 223 224 228 221 232 230 225 220 223 225 228 229 233 243 243 216 197 198 193 199 186 175 167 161 158 155 151 146
5 354 344 340 340 342 341 326 297 280 259 252 248 240 227 225 226 223 219 214 209 207 203 212 216 225 231 235 238 239 223 200 193 189 201 189 179 173 170 167 164 163 159
2 352 343 349 350 340 332 316 319 289 273 262 260 254 233 224 227 223 219 212 209 201 203 211 218 224 231 235 234 230 218 198 184 184 195 192 181 179 177 176 174 172 169
0 351 342 351 351 344 335 318 304 295 287 281 270 263 249 231 225 216 213 212 210 206 211 213 217 221 227 228 230 226 211 187 183 185 188 191 186 182 182 183 181 178 176
353 349 344 347 355 343 331 317 314 295 287 279 275 274 265 247 231 221 213 212 212 205 207 214 223 225 228 225 224 219 196 180 179 183 183 183 185 189 188 188 185 184 183
355 348 344 349 343 332 325 313 308 301 290 280 277 276 271 262 248 232 222 218 209 201 201 202 211 221 225 217 210 201 181 174 176 179 180 183 182 188 195 195 190 190 189
357 348 342 338 336 330 321 313 308 305 295 284 285 282 277 272 262 243 231 226 210 199 200 209 200 202 212 213 209 194 175 171 176 178 182 187 189 187 186 196 194 193 193
359 353 346 341 335 330 322 316 312 314 306 296 286 278 276 269 260 243 232 227 212 202 198 197 195 196 196 195 206 195 187 176 176 178 185 185 190 193 189 190 189 198 197
357 353 347 345 339 338 332 326 320 316 311 307 295 289 283 276 265 246 240 224 214 210 205 195 187 191 198 169 122 47 333 288 186 186 183 177 188 192 188 193 188 186 198
347 344 345 344 338 336 326 309 287 288 288 286 295 308 299 290 275 254 231 224 216 207 205 198 187 176 181 171 149 134 157 321 291 208 181 180 186 182 187 197 193 194 193
340 338 341 335 334 332 331 326 325 322 314 323 321 319 310 304 293 272 241 227 218 205 205 204 197 183 182 184 164 154 161 206 235 277 200 185 181 173 184 188 193 199 199
329 329 332 333 334 333 336 338 339 337 321 304 303 305 315 318 306 295 262 232 220 209 206 212 204 192 177 181 180 183 172 169 162 197 301 190 184 176 178 186 195 200 199
326 330 332 333 335 334 336 334 331 326 310 306 312 319 323 324 316 316 300 258 231 219 216 210 199 193 191 183 176 166 176 191 169 158 187 208 207 197 182 177 182 191 195
329 334 337 338 337 337 340 340 339 331 328 332 336 333 326 318 318 327 320 298 260 230 225 217 202 195 199 192 187 176 172 173 184 169 172 187 198 219 199 187 186 191 192